Regional Weather Roundup
Issued by NWS Bismarck, ND

Home | Current Version | Previous Version | Text Only | Print | Product List | Glossary On
Versions: 1 2 3 4 5 6 7 8 9 10 11 12 13 14 15 16 17 18 19 20 21 22 23 24 25 26 27 28 29 30 31 32 33 34 35 36 37 38 39 40 41 42 43 44 45 46 47 48 49 50
000
ASUS43 KBIS 252110
RWRBIS

NWR BROADCAST TEXT
NATIONAL WEATHER SERVICE BISMARCK ND
400 PM CDT SAT MAR 25 2017

NOTE: "FAIR" INDICATES FEW OR NO CLOUDS BELOW 12,000 FEET WITH NO
SIGNIFICANT WEATHER AND/OR OBSTRUCTIONS TO VISIBILITY.


CITY           SKY/WX    TMP DP  RH WIND       PRES   REMARKS
WILLISTON      FAIR      61  28  28 W15       29.86F
MINOT          FAIR      51  37  58 S14G24    29.87F
MINOT AFB      FAIR      49  38  66 SW13      29.86F
BISMARCK       FAIR      52  32  46 S10       29.94F
DICKINSON      FAIR      60  29  30 VRB6      29.85F
GARRISON         N/A     46  36  68 S14       29.89F
HETTINGER ARPT FAIR      57  34  41 VRB3      29.88F
JAMESTOWN      FAIR      41  34  76 SE16      29.99F
HAZEN          FAIR      55  34  44 S14       29.92S
LINTON           N/A     50  39  66 SE14G20   29.97F
MANDAN         FAIR      48  34  57 S13       29.94F
RUGBY            N/A     37  36  93 S9        29.94R
STANLEY        FAIR      57  36  44 W12       29.87F
TIOGA          FAIR      57  34  41 W14       29.86F
WATFORD CITY   FAIR      57  32  38 W8        29.87F
$$

CITY           SKY/WX    TMP DP  RH WIND       PRES   REMARKS
GRAND FORKS    CLOUDY    36  33  89 S14       30.09F
GRAND FORKS AF CLOUDY    35  32  89 S16       30.07F
DEVILS LAKE    FAIR      38  32  79 S14       29.99F
FARGO          PTSUNNY   40  33  76 S14       30.08F
CAVALIER       CLOUDY    36  32  87 S18G25    30.03F
GRAFTON        CLOUDY    36  34  93 S17G24    30.09F
GWINNER        CLOUDY    41  34  75 MISG      30.05F
LANGDON        FAIR      36  34  93 S18G24    29.98F
ROLLA          MOCLDY    34  34 100 S21G31    29.91F
$$

CITY           SKY/WX    TMP DP  RH WIND       PRES   REMARKS
ABERDEEN       FAIR      45  31  58 E7        30.02F
MOBRIDGE       FAIR      53  33  46 SE12      29.92F
BUFFALO          N/A     63  32  31 N18       29.80F
RAPID CITY     FAIR      66  31  27 N10       29.83F
GLASGOW        FAIR      59  25  27 NW16      29.88S
SIDNEY         FAIR      59  27  29 W10       29.88F
WOLF POINT     FAIR      62  28  27 W15       29.87F
GLENDIVE       FAIR      58  26  29 NW8       29.90F
MILES CITY     CLOUDY    57  26  30 VRB3      29.91F
BAKER          CLOUDY    56  28  34 N16       29.90F
$$

CITY           SKY/WX    TMP DP  RH WIND       PRES   REMARKS
BILLINGS       PTSUNNY   53  25  33 NW8       29.92F
GREAT FALLS    FAIR      53  19  26 SW12      29.89F
REGINA         PTSUNNY   54  37  54 W28       29.78R
ESTEVAN        MOSUNNY   55  34  44 W12       29.82F
$$





USA.gov is the U.S. government's official web portal to all federal, state and local government web resources and services.